START_TIME,STEP,MOV.,P11,t_acc.,P23,t_acc.,P27,t_acc.,A4,t_acc.
1980-11-14 12:00:11.670 ,7,0,0.,4.8,0.,4.8,0.,4.8,0.,4.8
1980-11-14 12:00:16.470 ,7,0,0.,4.8,0.,4.8,0.,4.8,0.,4.8
1980-11-14 12:00:21.270 ,7,0,0.,4.8,0.,4.8,0.,4.8,0.,4.8
1980-11-14 12:00:26.070 ,7,0,0.,4.8,0.,4.8,0.,4.8,0.,4.8
1980-11-14 12:00:30.870 ,7,0,0.,4.8,0.,4.8,1.,4.8,0.,4.8
1980-11-14 12:00:35.670 ,7,0,1.,4.8,0.,4.8,0.,4.8,0.,4.8
1980-11-14 12:00:40.470 ,7,0,0.,4.8,0.,4.8,1.,4.8,0.,4.8
1980-11-14 12:00:45.270 ,7,0,0.,4.8,0.,4.8,0.,4.8,0.,4.8
1980-11-14 12:00:50.070 ,7,0,0.,4.8,0.,4.8,0.,4.8,0.,4.8
1980-11-14 12:00:54.870 ,7,0,0.,4.8,0.,4.8,0.,4.8,0.,4.8
1980-11-14 12:00:59.670 ,7,0,1.,4.8,0.,4.8,0.,4.8,0.,4.8
1980-11-14 12:01:04.470 ,7,0,1.,4.8,0.,4.8,0.,4.8,0.,4.8
1980-11-14 12:01:09.270 ,7,0,0.,4.8,0.,4.8,0.,4.8,0.,4.8
1980-11-14 12:01:14.070 ,7,0,0.,4.8,0.,4.8,0.,4.8,0.,4.8
1980-11-14 12:01:18.870 ,7,0,0.,4.8,0.,4.8,0.,4.8,0.,4.8
1980-11-14 12:01:23.670 ,6,0,0.,4.8,0.,4.8,1.,4.8,0.,4.8
1980-11-14 12:01:28.470 ,6,0,1.,4.8,0.,4.8,0.,4.8,0.,4.8
1980-11-14 12:01:33.270 ,6,0,0.,4.8,0.,4.8,0.,4.8,0.,4.8
1980-11-14 12:01:38.070 ,6,0,0.,4.8,0.,4.8,0.,4.8,0.,4.8
1980-11-14 12:01:42.870 ,6,0,0.,4.8,0.,4.8,0.,4.8,0.,4.8
1980-11-14 12:01:47.670 ,6,0,0.,4.8,0.,4.8,0.,4.8,0.,4.8
1980-11-14 12:01:52.470 ,6,0,0.,4.8,0.,4.8,0.,4.8,0.,4.8
1980-11-14 12:01:57.270 ,6,0,0.,4.8,0.,4.8,0.,4.8,0.,4.8
1980-11-14 12:02:02.070 ,6,0,0.,4.8,0.,4.8,0.,4.8,0.,4.8
1980-11-14 12:02:06.870 ,6,0,0.,4.8,0.,4.8,0.,4.8,0.,4.8
1980-11-14 12:02:11.670 ,5,0,1.,4.8,0.,4.8,0.,4.8,0.,4.8
1980-11-14 12:02:16.470 ,5,0,0.,4.8,0.,4.8,0.,4.8,0.,4.8
1980-11-14 12:02:21.270 ,5,0,0.,4.8,0.,4.8,1.,4.8,0.,4.8
1980-11-14 12:02:26.070 ,5,0,0.,4.8,0.,4.8,0.,4.8,0.,4.8
1980-11-14 12:02:30.870 ,5,0,0.,4.8,0.,4.8,1.,4.8,0.,4.8
1980-11-14 12:02:35.670 ,5,0,0.,4.8,0.,4.8,0.,4.8,0.,4.8
1980-11-14 12:02:40.470 ,5,0,0.,4.8,0.,4.8,0.,4.8,0.,4.8
1980-11-14 12:02:45.270 ,5,0,2.,4.8,0.,4.8,0.,4.8,0.,4.8
1980-11-14 12:02:50.070 ,5,0,1.,4.8,0.,4.8,0.,4.8,0.,4.8
1980-11-14 12:02:54.870 ,5,0,2.,4.8,0.,4.8,0.,4.8,0.,4.8
1980-11-14 12:02:59.670 ,4,0,0.,4.8,0.,4.8,0.,4.8,0.,4.8
1980-11-14 12:03:04.470 ,4,0,0.,4.8,0.,4.8,0.,4.8,0.,4.8
1980-11-14 12:03:09.270 ,4,0,0.,4.8,0.,4.8,0.,4.8,0.,4.8
1980-11-14 12:03:14.070 ,4,0,0.,4.8,0.,4.8,0.,4.8,0.,4.8
1980-11-14 12:03:18.870 ,4,0,1.,4.8,0.,4.8,0.,4.8,0.,4.8
1980-11-14 12:03:23.670 ,4,0,1.,4.8,0.,4.8,0.,4.8,0.,4.8
1980-11-14 12:03:28.470 ,4,0,0.,4.8,1.,4.8,0.,4.8,0.,4.8
1980-11-14 12:03:33.270 ,4,0,0.,4.8,0.,4.8,0.,4.8,0.,4.8
1980-11-14 12:03:38.070 ,4,0,0.,4.8,0.,4.8,0.,4.8,0.,4.8
1980-11-14 12:03:42.870 ,4,0,0.,4.8,0.,4.8,1.,4.8,0.,4.8
1980-11-14 12:03:47.670 ,3,0,0.,4.8,0.,4.8,1.,4.8,0.,4.8
1980-11-14 12:03:52.470 ,3,0,0.,4.8,1.,4.8,0.,4.8,0.,4.8
1980-11-14 12:03:57.270 ,3,0,1.,4.8,0.,4.8,1.,4.8,0.,4.8
1980-11-14 12:04:02.070 ,3,0,0.,4.8,1.,4.8,0.,4.8,0.,4.8
1980-11-14 12:04:06.870 ,3,0,0.,4.8,0.,4.8,0.,4.8,0.,4.8
1980-11-14 12:04:11.670 ,3,0,0.,4.8,0.,4.8,1.,4.8,0.,4.8
1980-11-14 12:04:16.470 ,3,0,0.,4.8,0.,4.8,0.,4.8,0.,4.8
1980-11-14 12:04:21.270 ,3,0,0.,4.8,0.,4.8,0.,4.8,0.,4.8
1980-11-14 12:04:26.070 ,3,0,1.,4.8,0.,4.8,0.,4.8,0.,4.8
1980-11-14 12:04:30.870 ,3,0,2.,4.8,0.,4.8,1.,4.8,0.,4.8
1980-11-14 12:04:35.670 ,2,0,0.,4.8,0.,4.8,0.,4.8,0.,4.8
1980-11-14 12:04:40.470 ,2,0,0.,4.8,0.,4.8,0.,4.8,0.,4.8
1980-11-14 12:04:45.270 ,2,0,2.,4.8,0.,4.8,0.,4.8,0.,4.8
1980-11-14 12:04:50.070 ,2,0,1.,4.8,0.,4.8,0.,4.8,0.,4.8
1980-11-14 12:04:54.870 ,2,0,0.,4.8,0.,4.8,0.,4.8,0.,4.8
1980-11-14 12:04:59.670 ,2,0,0.,4.8,0.,4.8,0.,4.8,0.,4.8
1980-11-14 12:05:04.470 ,2,0,0.,4.8,0.,4.8,0.,4.8,0.,4.8
1980-11-14 12:05:09.270 ,2,0,0.,4.8,0.,4.8,0.,4.8,0.,4.8
1980-11-14 12:05:14.070 ,2,0,1.,4.8,0.,4.8,0.,4.8,0.,4.8
1980-11-14 12:05:18.870 ,2,0,0.,4.8,0.,4.8,0.,4.8,0.,4.8
1980-11-14 12:05:23.670 ,1,0,1.,4.8,0.,4.8,1.,4.8,0.,4.8
1980-11-14 12:05:28.470 ,1,0,0.,4.8,0.,4.8,0.,4.8,0.,4.8
1980-11-14 12:05:33.270 ,1,0,0.,4.8,0.,4.8,0.,4.8,0.,4.8
1980-11-14 12:05:38.070 ,1,0,1.,4.8,0.,4.8,0.,4.8,0.,4.8
1980-11-14 12:05:42.870 ,1,0,0.,4.8,0.,4.8,0.,4.8,0.,4.8
1980-11-14 12:05:47.670 ,1,0,1.,4.8,0.,4.8,0.,4.8,0.,4.8
1980-11-14 12:05:52.470 ,1,0,1.,4.8,0.,4.8,0.,4.8,0.,4.8
1980-11-14 12:05:57.270 ,1,0,1.,4.8,0.,4.8,0.,4.8,0.,4.8
1980-11-14 12:06:02.070 ,1,0,0.,4.8,0.,4.8,0.,4.8,0.,4.8
1980-11-14 12:06:06.870 ,1,0,0.,4.8,0.,4.8,1.,4.8,0.,4.8
1980-11-14 12:06:11.670 ,0,0,1.,4.8,0.,4.8,0.,4.8,0.,4.8
1980-11-14 12:06:16.470 ,0,0,0.,4.8,0.,4.8,1.,4.8,0.,4.8
1980-11-14 12:06:21.270 ,0,0,0.,4.8,1.,4.8,0.,4.8,1.,4.8
1980-11-14 12:06:26.070 ,0,0,0.,4.8,0.,4.8,0.,4.8,0.,4.8
1980-11-14 12:06:30.870 ,0,0,0.,4.8,0.,4.8,0.,4.8,1.,4.8
1980-11-14 12:06:35.670 ,0,0,0.,4.8,0.,4.8,1.,4.8,0.,4.8
1980-11-14 12:06:40.470 ,0,0,0.,4.8,0.,4.8,0.,4.8,0.,4.8
1980-11-14 12:06:45.270 ,0,0,2.,4.8,1.,4.8,1.,4.8,0.,4.8
1980-11-14 12:06:50.070 ,0,0,2.,4.8,0.,4.8,0.,4.8,0.,4.8
1980-11-14 12:06:54.870 ,0,0,1.,4.8,0.,4.8,0.,4.8,0.,4.8
1980-11-14 12:06:59.670 ,0,0,0.,4.8,0.,4.8,0.,4.8,0.,4.8
1980-11-14 12:07:04.470 ,0,0,0.,4.8,0.,4.8,0.,4.8,0.,4.8
1980-11-14 12:07:09.270 ,0,0,0.,4.8,0.,4.8,0.,4.8,0.,4.8
1980-11-14 12:07:14.070 ,0,0,1.,4.8,0.,4.8,0.,4.8,0.,4.8
1980-11-14 12:07:18.870 ,0,0,0.,4.8,0.,4.8,0.,4.8,0.,4.8
1980-11-14 12:07:23.670 ,0,0,0.,4.8,0.,4.8,0.,4.8,0.,4.8
1980-11-14 12:07:28.470 ,0,0,1.,4.8,0.,4.8,0.,4.8,0.,4.8
1980-11-14 12:07:33.270 ,0,0,2.,4.8,0.,4.8,0.,4.8,0.,4.8
1980-11-14 12:07:38.070 ,0,0,0.,4.8,0.,4.8,0.,4.8,0.,4.8
1980-11-14 12:07:42.870 ,0,0,0.,4.8,0.,4.8,0.,4.8,0.,4.8
1980-11-14 12:07:47.670 ,1,0,1.,4.8,0.,4.8,0.,4.8,0.,4.8
1980-11-14 12:07:52.470 ,1,0,1.,4.8,0.,4.8,0.,4.8,0.,4.8
1980-11-14 12:07:57.270 ,1,0,0.,4.8,0.,4.8,0.,4.8,0.,4.8
1980-11-14 12:08:02.070 ,1,0,0.,4.8,0.,4.8,1.,4.8,0.,4.8
1980-11-14 12:08:06.870 ,1,0,0.,4.8,0.,4.8,0.,4.8,0.,4.8
1980-11-14 12:08:11.670 ,1,0,0.,4.8,0.,4.8,1.,4.8,0.,4.8
1980-11-14 12:08:16.470 ,1,0,3.,4.8,0.,4.8,0.,4.8,0.,4.8
1980-11-14 12:08:21.270 ,1,0,2.,4.8,0.,4.8,0.,4.8,0.,4.8
1980-11-14 12:08:26.070 ,1,0,1.,4.8,0.,4.8,0.,4.8,0.,4.8
1980-11-14 12:08:30.870 ,1,0,1.,4.8,0.,4.8,0.,4.8,0.,4.8
1980-11-14 12:08:35.670 ,2,0,1.,4.8,0.,4.8,2.,4.8,0.,4.8
1980-11-14 12:08:40.470 ,2,0,0.,4.8,0.,4.8,0.,4.8,0.,4.8
1980-11-14 12:08:45.270 ,2,0,0.,4.8,0.,4.8,0.,4.8,0.,4.8
1980-11-14 12:08:50.070 ,2,0,0.,4.8,0.,4.8,0.,4.8,0.,4.8
1980-11-14 12:08:54.870 ,2,0,2.,4.8,0.,4.8,0.,4.8,0.,4.8
1980-11-14 12:08:59.670 ,2,0,0.,4.8,0.,4.8,0.,4.8,0.,4.8
1980-11-14 12:09:04.470 ,2,0,1.,4.8,0.,4.8,0.,4.8,0.,4.8
1980-11-14 12:09:09.270 ,2,0,1.,4.8,0.,4.8,0.,4.8,0.,4.8
1980-11-14 12:09:14.070 ,2,0,0.,4.8,0.,4.8,0.,4.8,0.,4.8
1980-11-14 12:09:18.870 ,2,0,0.,4.8,0.,4.8,0.,4.8,0.,4.8
1980-11-14 12:09:23.670 ,3,0,1.,4.8,0.,4.8,0.,4.8,0.,4.8
1980-11-14 12:09:28.470 ,3,0,0.,4.8,0.,4.8,0.,4.8,0.,4.8
1980-11-14 12:09:33.270 ,3,0,1.,4.8,0.,4.8,0.,4.8,0.,4.8
1980-11-14 12:09:38.070 ,3,0,0.,4.8,0.,4.8,0.,4.8,0.,4.8
1980-11-14 12:09:42.870 ,3,0,0.,4.8,0.,4.8,0.,4.8,0.,4.8
1980-11-14 12:09:47.670 ,3,0,1.,4.8,0.,4.8,0.,4.8,0.,4.8
1980-11-14 12:09:52.470 ,3,0,0.,4.8,0.,4.8,0.,4.8,0.,4.8
1980-11-14 12:09:57.270 ,3,0,2.,4.8,0.,4.8,0.,4.8,0.,4.8
1980-11-14 12:10:02.070 ,3,0,0.,4.8,0.,4.8,0.,4.8,0.,4.8
1980-11-14 12:10:06.870 ,3,0,2.,4.8,0.,4.8,0.,4.8,0.,4.8
1980-11-14 12:10:11.670 ,4,0,0.,4.8,0.,4.8,0.,4.8,0.,4.8
1980-11-14 12:10:16.470 ,4,0,1.,4.8,1.,4.8,0.,4.8,0.,4.8
1980-11-14 12:10:21.270 ,4,0,0.,4.8,0.,4.8,0.,4.8,0.,4.8
1980-11-14 12:10:26.070 ,4,0,0.,4.8,0.,4.8,0.,4.8,0.,4.8
1980-11-14 12:10:30.870 ,4,0,0.,4.8,0.,4.8,0.,4.8,0.,4.8
1980-11-14 12:10:35.670 ,4,0,0.,4.8,0.,4.8,0.,4.8,0.,4.8
1980-11-14 12:10:40.470 ,4,0,0.,4.8,0.,4.8,0.,4.8,0.,4.8
1980-11-14 12:10:45.270 ,4,0,0.,4.8,0.,4.8,0.,4.8,0.,4.8
1980-11-14 12:10:50.070 ,4,0,0.,4.8,0.,4.8,0.,4.8,0.,4.8
1980-11-14 12:10:54.870 ,4,0,0.,4.8,0.,4.8,0.,4.8,0.,4.8
1980-11-14 12:10:59.670 ,5,0,0.,4.8,0.,4.8,1.,4.8,0.,4.8
1980-11-14 12:11:04.470 ,5,0,2.,4.8,0.,4.8,0.,4.8,0.,4.8
1980-11-14 12:11:09.270 ,5,0,1.,4.8,0.,4.8,0.,4.8,0.,4.8
1980-11-14 12:11:14.070 ,5,0,0.,4.8,0.,4.8,0.,4.8,0.,4.8
1980-11-14 12:11:18.870 ,5,0,2.,4.8,0.,4.8,0.,4.8,0.,4.8
1980-11-14 12:11:23.670 ,5,0,1.,4.8,0.,4.8,0.,4.8,0.,4.8
1980-11-14 12:11:28.470 ,5,0,0.,4.8,0.,4.8,0.,4.8,0.,4.8
1980-11-14 12:11:33.270 ,5,0,0.,4.8,0.,4.8,0.,4.8,0.,4.8
1980-11-14 12:11:38.070 ,5,0,0.,4.8,0.,4.8,0.,4.8,0.,4.8
1980-11-14 12:11:42.870 ,5,0,0.,4.8,0.,4.8,0.,4.8,0.,4.8
1980-11-14 12:11:47.670 ,6,0,0.,4.8,0.,4.8,0.,4.8,0.,4.8
1980-11-14 12:11:52.470 ,6,0,0.,4.8,0.,4.8,0.,4.8,0.,4.8
1980-11-14 12:11:57.270 ,6,0,1.,4.8,0.,4.8,0.,4.8,0.,4.8
1980-11-14 12:12:02.070 ,6,0,1.,4.8,0.,4.8,0.,4.8,0.,4.8
1980-11-14 12:12:06.870 ,6,0,0.,4.8,0.,4.8,0.,4.8,0.,4.8
1980-11-14 12:12:11.670 ,6,0,0.,4.8,0.,4.8,0.,4.8,0.,4.8
1980-11-14 12:12:16.470 ,6,0,1.,4.8,0.,4.8,1.,4.8,0.,4.8
1980-11-14 12:12:21.270 ,6,0,0.,4.8,0.,4.8,0.,4.8,0.,4.8
1980-11-14 12:12:26.070 ,6,0,0.,4.8,0.,4.8,0.,4.8,0.,4.8
1980-11-14 12:12:30.870 ,6,0,0.,4.8,0.,4.8,0.,4.8,0.,4.8
1980-11-14 12:12:35.670 ,7,0,0.,4.8,0.,4.8,1.,4.8,0.,4.8
1980-11-14 12:12:40.470 ,7,0,1.,4.8,0.,4.8,1.,4.8,0.,4.8
1980-11-14 12:12:45.270 ,7,0,1.,4.8,0.,4.8,0.,4.8,0.,4.8
1980-11-14 12:12:50.070 ,7,0,1.,4.8,0.,4.8,0.,4.8,0.,4.8
1980-11-14 12:12:54.870 ,7,0,0.,4.8,0.,4.8,1.,4.8,0.,4.8
1980-11-14 12:12:59.670 ,7,0,0.,4.8,0.,4.8,0.,4.8,0.,4.8
1980-11-14 12:13:04.470 ,7,0,1.,4.8,0.,4.8,0.,4.8,0.,4.8
1980-11-14 12:13:09.270 ,7,0,0.,4.8,0.,4.8,0.,4.8,0.,4.8
1980-11-14 12:13:14.070 ,7,0,1.,4.8,0.,4.8,1.,4.8,0.,4.8
1980-11-14 12:13:18.870 ,7,0,0.,4.8,0.,4.8,0.,4.8,0.,4.8
1980-11-14 12:13:23.670 ,7,0,0.,4.8,0.,4.8,0.,4.8,0.,4.8
1980-11-14 12:13:28.470 ,7,0,2.,4.8,0.,4.8,0.,4.8,0.,4.8
1980-11-14 12:13:33.270 ,7,0,1.,4.8,0.,4.8,0.,4.8,0.,4.8
1980-11-14 12:13:38.070 ,7,0,0.,4.8,0.,4.8,0.,4.8,0.,4.8
1980-11-14 12:13:42.870 ,7,0,0.,4.8,0.,4.8,0.,4.8,0.,4.8
1980-11-14 12:13:47.670 ,7,0,0.,4.8,0.,4.8,0.,4.8,0.,4.8
1980-11-14 12:13:52.470 ,7,0,0.,4.8,0.,4.8,0.,4.8,0.,4.8
1980-11-14 12:13:57.270 ,7,0,0.,4.8,0.,4.8,0.,4.8,0.,4.8
1980-11-14 12:14:02.070 ,7,0,0.,4.8,0.,4.8,0.,4.8,0.,4.8
1980-11-14 12:14:06.870 ,7,0,0.,4.8,0.,4.8,0.,4.8,0.,4.8
1980-11-14 12:14:11.670 ,6,0,1.,4.8,0.,4.8,0.,4.8,0.,4.8
1980-11-14 12:14:16.470 ,6,0,0.,4.8,0.,4.8,0.,4.8,0.,4.8
1980-11-14 12:14:21.270 ,6,0,1.,4.8,0.,4.8,0.,4.8,0.,4.8
1980-11-14 12:14:26.070 ,6,0,0.,4.8,0.,4.8,0.,4.8,0.,4.8
1980-11-14 12:14:30.870 ,6,0,0.,4.8,0.,4.8,0.,4.8,0.,4.8
1980-11-14 12:14:35.670 ,6,0,0.,4.8,0.,4.8,0.,4.8,0.,4.8
1980-11-14 12:14:40.470 ,6,0,3.,4.8,0.,4.8,0.,4.8,0.,4.8
1980-11-14 12:14:45.270 ,6,0,0.,4.8,0.,4.8,0.,4.8,0.,4.8
1980-11-14 12:14:50.070 ,6,0,0.,4.8,0.,4.8,1.,4.8,0.,4.8
1980-11-14 12:14:54.870 ,6,0,0.,4.8,0.,4.8,0.,4.8,0.,4.8
1980-11-14 12:14:59.670 ,5,0,0.,4.8,0.,4.8,0.,4.8,0.,4.8
1980-11-14 12:15:04.470 ,5,0,0.,4.8,0.,4.8,0.,4.8,0.,4.8
1980-11-14 12:15:09.270 ,5,0,0.,4.8,0.,4.8,0.,4.8,0.,4.8
1980-11-14 12:15:14.070 ,5,0,0.,4.8,0.,4.8,0.,4.8,0.,4.8
1980-11-14 12:15:18.870 ,5,0,0.,4.8,0.,4.8,0.,4.8,0.,4.8
1980-11-14 12:15:23.670 ,5,0,0.,4.8,0.,4.8,0.,4.8,0.,4.8
1980-11-14 12:15:28.470 ,5,0,0.,4.8,0.,4.8,0.,4.8,0.,4.8
1980-11-14 12:15:33.270 ,5,0,0.,4.8,0.,4.8,0.,4.8,0.,4.8
1980-11-14 12:15:38.070 ,5,0,0.,4.8,0.,4.8,0.,4.8,0.,4.8
1980-11-14 12:15:42.870 ,5,0,2.,4.8,0.,4.8,0.,4.8,0.,4.8
1980-11-14 12:15:47.670 ,4,0,0.,4.8,0.,4.8,0.,4.8,0.,4.8
1980-11-14 12:15:52.470 ,4,0,0.,4.8,0.,4.8,2.,4.8,0.,4.8
1980-11-14 12:15:57.270 ,4,0,0.,4.8,0.,4.8,1.,4.8,0.,4.8
1980-11-14 12:16:02.070 ,4,0,1.,4.8,0.,4.8,0.,4.8,0.,4.8
1980-11-14 12:16:06.870 ,4,0,1.,4.8,0.,4.8,0.,4.8,0.,4.8
1980-11-14 12:16:11.670 ,4,0,0.,4.8,0.,4.8,0.,4.8,0.,4.8
1980-11-14 12:16:16.470 ,4,0,1.,4.8,0.,4.8,0.,4.8,0.,4.8
1980-11-14 12:16:21.270 ,4,0,0.,4.8,0.,4.8,0.,4.8,0.,4.8
1980-11-14 12:16:26.070 ,4,0,2.,4.8,0.,4.8,0.,4.8,0.,4.8
1980-11-14 12:16:30.870 ,4,0,0.,4.8,0.,4.8,0.,4.8,0.,4.8
1980-11-14 12:16:35.670 ,3,0,1.,4.8,0.,4.8,0.,4.8,0.,4.8
1980-11-14 12:16:40.470 ,3,0,0.,4.8,0.,4.8,0.,4.8,0.,4.8
1980-11-14 12:16:45.270 ,3,0,0.,4.8,0.,4.8,0.,4.8,0.,4.8
1980-11-14 12:16:50.070 ,3,0,0.,4.8,0.,4.8,0.,4.8,0.,4.8
1980-11-14 12:16:54.870 ,3,0,1.,4.8,0.,4.8,1.,4.8,0.,4.8
1980-11-14 12:16:59.670 ,3,0,2.,4.8,0.,4.8,0.,4.8,0.,4.8
1980-11-14 12:17:04.470 ,3,0,0.,4.8,0.,4.8,0.,4.8,0.,4.8
1980-11-14 12:17:09.270 ,3,0,0.,4.8,0.,4.8,0.,4.8,0.,4.8
1980-11-14 12:17:14.070 ,3,0,0.,4.8,0.,4.8,0.,4.8,0.,4.8
1980-11-14 12:17:18.870 ,3,0,1.,4.8,0.,4.8,0.,4.8,0.,4.8
1980-11-14 12:17:23.670 ,2,0,0.,4.8,0.,4.8,0.,4.8,0.,4.8
1980-11-14 12:17:28.470 ,2,0,0.,4.8,0.,4.8,0.,4.8,0.,4.8
1980-11-14 12:17:33.270 ,2,0,0.,4.8,0.,4.8,0.,4.8,0.,4.8
1980-11-14 12:17:38.070 ,2,0,0.,4.8,0.,4.8,0.,4.8,0.,4.8
1980-11-14 12:17:42.870 ,2,0,0.,4.8,0.,4.8,0.,4.8,0.,4.8
1980-11-14 12:17:47.670 ,2,0,1.,4.8,0.,4.8,0.,4.8,0.,4.8
1980-11-14 12:17:52.470 ,2,0,1.,4.8,0.,4.8,1.,4.8,0.,4.8
1980-11-14 12:17:57.270 ,2,0,1.,4.8,0.,4.8,0.,4.8,0.,4.8
1980-11-14 12:18:02.070 ,2,0,0.,4.8,0.,4.8,0.,4.8,0.,4.8
1980-11-14 12:18:06.870 ,2,0,1.,4.8,0.,4.8,1.,4.8,0.,4.8
1980-11-14 12:18:11.670 ,1,0,1.,4.8,0.,4.8,0.,4.8,0.,4.8
1980-11-14 12:18:16.470 ,1,0,0.,4.8,0.,4.8,0.,4.8,0.,4.8
1980-11-14 12:18:21.270 ,1,0,0.,4.8,0.,4.8,0.,4.8,0.,4.8
1980-11-14 12:18:26.070 ,1,0,1.,4.8,0.,4.8,0.,4.8,0.,4.8
1980-11-14 12:18:30.870 ,1,0,0.,4.8,1.,4.8,0.,4.8,0.,4.8
1980-11-14 12:18:35.670 ,1,0,0.,4.8,0.,4.8,0.,4.8,0.,4.8
1980-11-14 12:18:40.470 ,1,0,0.,4.8,0.,4.8,0.,4.8,0.,4.8
1980-11-14 12:18:45.270 ,1,0,0.,4.8,0.,4.8,0.,4.8,0.,4.8
1980-11-14 12:18:50.070 ,1,0,0.,4.8,0.,4.8,0.,4.8,0.,4.8
1980-11-14 12:18:54.870 ,1,0,1.,4.8,0.,4.8,0.,4.8,0.,4.8
1980-11-14 12:18:59.670 ,0,0,1.,4.8,0.,4.8,0.,4.8,0.,4.8
1980-11-14 12:19:04.470 ,0,0,0.,4.8,0.,4.8,0.,4.8,0.,4.8
1980-11-14 12:19:09.270 ,0,0,0.,4.8,0.,4.8,0.,4.8,0.,4.8
1980-11-14 12:19:14.070 ,0,0,1.,4.8,0.,4.8,0.,4.8,0.,4.8
1980-11-14 12:19:18.870 ,0,0,1.,4.8,0.,4.8,0.,4.8,0.,4.8
1980-11-14 12:19:23.670 ,0,0,1.,4.8,0.,4.8,0.,4.8,0.,4.8
1980-11-14 12:19:28.470 ,0,0,0.,4.8,0.,4.8,0.,4.8,0.,4.8
1980-11-14 12:19:33.270 ,0,0,1.,4.8,0.,4.8,0.,4.8,0.,4.8
1980-11-14 12:19:38.070 ,0,0,0.,4.8,0.,4.8,1.,4.8,0.,4.8
1980-11-14 12:19:42.870 ,0,0,1.,4.8,0.,4.8,0.,4.8,0.,4.8
1980-11-14 12:19:47.670 ,0,0,1.,4.8,0.,4.8,0.,4.8,0.,4.8
1980-11-14 12:19:52.470 ,0,0,0.,4.8,0.,4.8,0.,4.8,0.,4.8
1980-11-14 12:19:57.270 ,0,0,0.,4.8,0.,4.8,0.,4.8,0.,4.8
1980-11-14 12:20:02.070 ,0,0,2.,4.8,0.,4.8,0.,4.8,0.,4.8
1980-11-14 12:20:06.870 ,0,0,1.,4.8,0.,4.8,0.,4.8,0.,4.8
1980-11-14 12:20:11.670 ,0,0,0.,4.8,0.,4.8,0.,4.8,0.,4.8
1980-11-14 12:20:16.470 ,0,0,0.,4.8,0.,4.8,0.,4.8,0.,4.8
1980-11-14 12:20:21.270 ,0,0,0.,4.8,0.,4.8,0.,4.8,0.,4.8
1980-11-14 12:20:26.070 ,0,0,2.,4.8,0.,4.8,0.,4.8,0.,4.8
1980-11-14 12:20:30.870 ,0,0,0.,4.8,0.,4.8,1.,4.8,0.,4.8
1980-11-14 12:20:35.670 ,1,0,1.,4.8,0.,4.8,0.,4.8,0.,4.8
1980-11-14 12:20:40.470 ,1,0,1.,4.8,0.,4.8,0.,4.8,0.,4.8
1980-11-14 12:20:45.270 ,1,0,0.,4.8,0.,4.8,0.,4.8,0.,4.8
1980-11-14 12:20:50.070 ,1,0,0.,4.8,0.,4.8,1.,4.8,0.,4.8
1980-11-14 12:20:54.870 ,1,0,0.,4.8,0.,4.8,0.,4.8,0.,4.8
1980-11-14 12:20:59.670 ,1,0,1.,4.8,0.,4.8,0.,4.8,0.,4.8
1980-11-14 12:21:04.470 ,1,0,0.,4.8,0.,4.8,0.,4.8,0.,4.8
1980-11-14 12:21:09.270 ,1,0,1.,4.8,0.,4.8,0.,4.8,0.,4.8
1980-11-14 12:21:14.070 ,1,0,0.,4.8,0.,4.8,0.,4.8,0.,4.8
1980-11-14 12:21:18.870 ,1,0,0.,4.8,0.,4.8,1.,4.8,0.,4.8
1980-11-14 12:21:23.670 ,2,0,0.,4.8,0.,4.8,0.,4.8,0.,4.8
1980-11-14 12:21:28.470 ,2,0,0.,4.8,0.,4.8,0.,4.8,0.,4.8
1980-11-14 12:21:33.270 ,2,0,1.,4.8,0.,4.8,0.,4.8,0.,4.8
1980-11-14 12:21:38.070 ,2,0,0.,4.8,0.,4.8,0.,4.8,0.,4.8
1980-11-14 12:21:42.870 ,2,0,0.,4.8,0.,4.8,0.,4.8,0.,4.8
1980-11-14 12:21:47.670 ,2,0,0.,4.8,0.,4.8,0.,4.8,0.,4.8
1980-11-14 12:21:52.470 ,2,0,0.,4.8,0.,4.8,0.,4.8,0.,4.8
1980-11-14 12:21:57.270 ,2,0,0.,4.8,0.,4.8,0.,4.8,0.,4.8
1980-11-14 12:22:02.070 ,2,0,0.,4.8,0.,4.8,0.,4.8,0.,4.8
1980-11-14 12:22:06.870 ,2,0,0.,4.8,0.,4.8,0.,4.8,0.,4.8
1980-11-14 12:22:11.670 ,3,0,0.,4.8,0.,4.8,0.,4.8,0.,4.8
1980-11-14 12:22:16.470 ,3,0,0.,4.8,0.,4.8,0.,4.8,0.,4.8
1980-11-14 12:22:21.270 ,3,0,0.,4.8,0.,4.8,0.,4.8,0.,4.8
1980-11-14 12:22:26.070 ,3,0,2.,4.8,0.,4.8,0.,4.8,0.,4.8
1980-11-14 12:22:30.870 ,3,0,0.,4.8,0.,4.8,0.,4.8,0.,4.8
1980-11-14 12:22:35.670 ,3,0,0.,4.8,0.,4.8,0.,4.8,0.,4.8
1980-11-14 12:22:40.470 ,3,0,1.,4.8,0.,4.8,0.,4.8,0.,4.8
1980-11-14 12:22:45.270 ,3,0,0.,4.8,0.,4.8,0.,4.8,0.,4.8
1980-11-14 12:22:50.070 ,3,0,1.,4.8,0.,4.8,0.,4.8,0.,4.8
1980-11-14 12:22:54.870 ,3,0,0.,4.8,0.,4.8,0.,4.8,0.,4.8
1980-11-14 12:22:59.670 ,4,0,1.,4.8,0.,4.8,0.,4.8,0.,4.8
1980-11-14 12:23:04.470 ,4,0,0.,4.8,0.,4.8,0.,4.8,0.,4.8
1980-11-14 12:23:09.270 ,4,0,0.,4.8,0.,4.8,0.,4.8,0.,4.8
1980-11-14 12:23:14.070 ,4,0,0.,4.8,0.,4.8,0.,4.8,0.,4.8
1980-11-14 12:23:18.870 ,4,0,0.,4.8,0.,4.8,0.,4.8,0.,4.8
1980-11-14 12:23:23.670 ,4,0,0.,4.8,0.,4.8,0.,4.8,0.,4.8
1980-11-14 12:23:28.470 ,4,0,1.,4.8,0.,4.8,0.,4.8,0.,4.8
1980-11-14 12:23:33.270 ,4,0,0.,4.8,0.,4.8,0.,4.8,0.,4.8
1980-11-14 12:23:38.070 ,4,0,2.,4.8,0.,4.8,0.,4.8,0.,4.8
1980-11-14 12:23:42.870 ,4,0,0.,4.8,0.,4.8,0.,4.8,0.,4.8
1980-11-14 13:35:47.670 ,0,0,0.,4.8,0.,4.8,0.,4.8,0.,4.8
1980-11-14 13:35:52.470 ,0,0,1.,4.8,0.,4.8,0.,4.8,0.,4.8
1980-11-14 13:35:57.270 ,0,0,0.,4.8,0.,4.8,1.,4.8,0.,4.8
1980-11-14 13:36:02.070 ,0,0,0.,4.8,0.,4.8,0.,4.8,0.,4.8
1980-11-14 13:36:06.870 ,0,0,0.,4.8,1.,4.8,0.,4.8,0.,4.8
1980-11-14 13:36:11.670 ,0,0,1.,4.8,0.,4.8,0.,4.8,0.,4.8
1980-11-14 13:36:16.470 ,0,0,0.,4.8,1.,4.8,0.,4.8,0.,4.8
1980-11-14 13:36:21.270 ,0,0,0.,4.8,0.,4.8,0.,4.8,0.,4.8
1980-11-14 13:36:26.070 ,0,0,0.,4.8,0.,4.8,0.,4.8,0.,4.8
1980-11-14 13:36:30.870 ,0,0,0.,4.8,0.,4.8,0.,4.8,0.,4.8
1980-11-14 13:36:35.670 ,0,0,1.,4.8,0.,4.8,0.,4.8,0.,4.8
1980-11-14 13:36:40.470 ,0,0,0.,4.8,0.,4.8,0.,4.8,0.,4.8
1980-11-14 13:36:45.270 ,0,0,4.,4.8,0.,4.8,0.,4.8,0.,4.8
1980-11-14 13:36:50.070 ,0,0,1.,4.8,0.,4.8,3.,4.8,0.,4.8
1980-11-14 13:36:54.870 ,0,0,0.,4.8,0.,4.8,0.,4.8,0.,4.8
1980-11-14 13:36:59.670 ,0,0,0.,4.8,0.,4.8,0.,4.8,0.,4.8
1980-11-14 13:37:04.470 ,0,0,0.,4.8,0.,4.8,0.,4.8,0.,4.8
1980-11-14 13:37:09.270 ,0,0,0.,4.8,0.,4.8,1.,4.8,0.,4.8
1980-11-14 13:37:14.070 ,0,0,0.,4.8,0.,4.8,0.,4.8,0.,4.8
1980-11-14 13:37:18.870 ,0,0,1.,4.8,0.,4.8,0.,4.8,0.,4.8
1980-11-14 13:37:23.670 ,1,0,2.,4.8,0.,4.8,0.,4.8,0.,4.8
1980-11-14 13:37:28.470 ,1,0,0.,4.8,0.,4.8,0.,4.8,0.,4.8
1980-11-14 13:37:33.270 ,1,0,0.,4.8,0.,4.8,0.,4.8,0.,4.8
1980-11-14 13:37:38.070 ,1,0,1.,4.8,0.,4.8,0.,4.8,0.,4.8
1980-11-14 13:37:42.870 ,1,0,0.,4.8,1.,4.8,0.,4.8,0.,4.8
1980-11-14 13:37:47.670 ,1,0,0.,4.8,0.,4.8,0.,4.8,0.,4.8
1980-11-14 13:37:52.470 ,1,0,0.,4.8,0.,4.8,0.,4.8,0.,4.8
1980-11-14 13:37:57.270 ,1,0,0.,4.8,0.,4.8,0.,4.8,0.,4.8
1980-11-14 13:38:02.070 ,1,0,0.,4.8,1.,4.8,0.,4.8,0.,4.8
1980-11-14 13:38:06.870 ,1,0,0.,4.8,0.,4.8,0.,4.8,0.,4.8
1980-11-14 13:38:11.670 ,2,0,0.,4.8,0.,4.8,0.,4.8,0.,4.8
1980-11-14 13:38:16.470 ,2,0,0.,4.8,0.,4.8,0.,4.8,0.,4.8
1980-11-14 13:38:21.270 ,2,0,0.,4.8,0.,4.8,0.,4.8,0.,4.8
1980-11-14 13:38:26.070 ,2,0,0.,4.8,1.,4.8,0.,4.8,0.,4.8
1980-11-14 13:38:30.870 ,2,0,0.,4.8,1.,4.8,0.,4.8,0.,4.8
1980-11-14 13:38:35.670 ,2,0,0.,4.8,0.,4.8,0.,4.8,0.,4.8
1980-11-14 13:38:40.470 ,2,0,0.,4.8,0.,4.8,0.,4.8,0.,4.8
1980-11-14 13:38:45.270 ,2,0,0.,4.8,0.,4.8,0.,4.8,0.,4.8
1980-11-14 13:38:50.070 ,2,0,0.,4.8,0.,4.8,1.,4.8,0.,4.8
1980-11-14 13:38:54.870 ,2,0,0.,4.8,0.,4.8,0.,4.8,0.,4.8
1980-11-14 13:38:59.670 ,3,0,0.,4.8,0.,4.8,0.,4.8,0.,4.8
1980-11-14 13:39:04.470 ,3,0,1.,4.8,0.,4.8,0.,4.8,0.,4.8
1980-11-14 13:39:09.270 ,3,0,0.,4.8,1.,4.8,1.,4.8,0.,4.8
1980-11-14 13:39:14.070 ,3,0,1.,4.8,0.,4.8,0.,4.8,0.,4.8
1980-11-14 13:39:18.870 ,3,0,0.,4.8,0.,4.8,0.,4.8,0.,4.8
1980-11-14 13:39:23.670 ,3,0,0.,4.8,0.,4.8,0.,4.8,0.,4.8
1980-11-14 13:39:28.470 ,3,0,0.,4.8,0.,4.8,0.,4.8,0.,4.8
1980-11-14 13:39:33.270 ,3,0,0.,4.8,0.,4.8,0.,4.8,0.,4.8
1980-11-14 13:39:38.070 ,3,0,1.,4.8,0.,4.8,0.,4.8,0.,4.8
1980-11-14 13:39:42.870 ,3,0,0.,4.8,0.,4.8,0.,4.8,0.,4.8
1980-11-14 13:39:47.670 ,4,0,1.,4.8,0.,4.8,0.,4.8,0.,4.8
1980-11-14 13:39:52.470 ,4,0,0.,4.8,0.,4.8,0.,4.8,0.,4.8
1980-11-14 13:39:57.270 ,4,0,0.,4.8,0.,4.8,0.,4.8,0.,4.8
1980-11-14 13:40:02.070 ,4,0,1.,4.8,0.,4.8,0.,4.8,0.,4.8
1980-11-14 13:40:06.870 ,4,0,0.,4.8,0.,4.8,0.,4.8,0.,4.8
1980-11-14 13:40:11.670 ,4,0,1.,4.8,0.,4.8,0.,4.8,0.,4.8
1980-11-14 13:40:16.470 ,4,0,0.,4.8,0.,4.8,0.,4.8,0.,4.8
1980-11-14 13:40:21.270 ,4,0,0.,4.8,0.,4.8,0.,4.8,0.,4.8
1980-11-14 13:40:26.070 ,4,0,0.,4.8,0.,4.8,0.,4.8,0.,4.8
1980-11-14 13:40:30.870 ,4,0,1.,4.8,0.,4.8,0.,4.8,0.,4.8
1980-11-14 13:40:35.670 ,5,0,0.,4.8,0.,4.8,0.,4.8,1.,4.8
1980-11-14 13:40:40.470 ,5,0,2.,4.8,1.,4.8,0.,4.8,0.,4.8
1980-11-14 13:40:45.270 ,5,0,0.,4.8,0.,4.8,0.,4.8,0.,4.8
1980-11-14 13:40:50.070 ,5,0,0.,4.8,0.,4.8,0.,4.8,0.,4.8
1980-11-14 13:40:54.870 ,5,0,1.,4.8,0.,4.8,0.,4.8,0.,4.8
1980-11-14 13:40:59.670 ,5,0,0.,4.8,0.,4.8,0.,4.8,0.,4.8
1980-11-14 13:41:04.470 ,5,0,2.,4.8,0.,4.8,0.,4.8,0.,4.8
1980-11-14 13:41:09.270 ,5,0,2.,4.8,0.,4.8,0.,4.8,0.,4.8
1980-11-14 13:41:14.070 ,5,0,0.,4.8,0.,4.8,0.,4.8,0.,4.8
1980-11-14 13:41:18.870 ,5,0,0.,4.8,0.,4.8,0.,4.8,0.,4.8
1980-11-14 13:41:23.670 ,6,0,0.,4.8,0.,4.8,0.,4.8,0.,4.8
1980-11-14 13:41:28.470 ,6,0,0.,4.8,0.,4.8,0.,4.8,0.,4.8
1980-11-14 13:41:33.270 ,6,0,0.,4.8,0.,4.8,0.,4.8,0.,4.8
1980-11-14 13:41:38.070 ,6,0,0.,4.8,0.,4.8,0.,4.8,0.,4.8
1980-11-14 13:41:42.870 ,6,0,0.,4.8,0.,4.8,0.,4.8,0.,4.8
1980-11-14 13:41:47.670 ,6,0,0.,4.8,0.,4.8,1.,4.8,0.,4.8
1980-11-14 13:41:52.470 ,6,0,0.,4.8,0.,4.8,0.,4.8,0.,4.8
1980-11-14 13:41:57.270 ,6,0,1.,4.8,0.,4.8,0.,4.8,0.,4.8
1980-11-14 13:42:02.070 ,6,0,0.,4.8,0.,4.8,0.,4.8,0.,4.8
1980-11-14 13:42:06.870 ,6,0,0.,4.8,0.,4.8,0.,4.8,0.,4.8
1980-11-14 13:42:11.670 ,7,0,0.,4.8,0.,4.8,0.,4.8,0.,4.8
1980-11-14 13:42:16.470 ,7,0,1.,4.8,0.,4.8,0.,4.8,0.,4.8
1980-11-14 13:42:21.270 ,7,0,0.,4.8,0.,4.8,0.,4.8,0.,4.8
1980-11-14 13:42:26.070 ,7,0,0.,4.8,0.,4.8,0.,4.8,0.,4.8
1980-11-14 13:42:30.870 ,7,0,0.,4.8,0.,4.8,0.,4.8,0.,4.8
1980-11-14 13:42:35.670 ,7,0,1.,4.8,0.,4.8,0.,4.8,0.,4.8
1980-11-14 13:42:40.470 ,7,0,0.,4.8,0.,4.8,1.,4.8,0.,4.8
1980-11-14 13:42:45.270 ,7,0,0.,4.8,0.,4.8,0.,4.8,0.,4.8
1980-11-14 13:42:50.070 ,7,0,0.,4.8,0.,4.8,0.,4.8,0.,4.8
1980-11-14 13:42:54.870 ,7,0,1.,4.8,0.,4.8,0.,4.8,0.,4.8
1980-11-14 13:42:59.670 ,7,0,0.,4.8,0.,4.8,0.,4.8,0.,4.8
1980-11-14 13:43:04.470 ,7,0,0.,4.8,0.,4.8,0.,4.8,0.,4.8
1980-11-14 13:43:09.270 ,7,0,0.,4.8,0.,4.8,0.,4.8,0.,4.8
1980-11-14 13:43:14.070 ,7,0,0.,4.8,0.,4.8,0.,4.8,0.,4.8
1980-11-14 13:43:18.870 ,7,0,1.,4.8,0.,4.8,0.,4.8,0.,4.8
1980-11-14 13:43:23.670 ,7,0,0.,4.8,0.,4.8,0.,4.8,0.,4.8
1980-11-14 13:43:28.470 ,7,0,0.,4.8,0.,4.8,0.,4.8,0.,4.8
1980-11-14 13:43:33.270 ,7,0,0.,4.8,0.,4.8,0.,4.8,0.,4.8
1980-11-14 13:43:38.070 ,7,0,0.,4.8,0.,4.8,0.,4.8,0.,4.8
1980-11-14 13:43:42.870 ,7,0,1.,4.8,0.,4.8,0.,4.8,0.,4.8
1980-11-14 13:43:47.670 ,6,0,0.,4.8,0.,4.8,0.,4.8,0.,4.8
1980-11-14 13:43:52.470 ,6,0,0.,4.8,1.,4.8,0.,4.8,0.,4.8
1980-11-14 13:43:57.270 ,6,0,0.,4.8,0.,4.8,0.,4.8,0.,4.8
1980-11-14 13:44:02.070 ,6,0,0.,4.8,0.,4.8,0.,4.8,0.,4.8
1980-11-14 13:44:06.870 ,6,0,0.,4.8,0.,4.8,0.,4.8,0.,4.8
1980-11-14 13:44:11.670 ,6,0,0.,4.8,0.,4.8,0.,4.8,0.,4.8
1980-11-14 13:44:16.470 ,6,0,0.,4.8,0.,4.8,0.,4.8,0.,4.8
1980-11-14 13:44:21.270 ,6,0,0.,4.8,0.,4.8,0.,4.8,0.,4.8
1980-11-14 13:44:26.070 ,6,0,0.,4.8,0.,4.8,0.,4.8,0.,4.8
1980-11-14 13:44:30.870 ,6,0,0.,4.8,0.,4.8,0.,4.8,0.,4.8
1980-11-14 13:44:35.670 ,5,0,0.,4.8,0.,4.8,0.,4.8,0.,4.8
1980-11-14 13:44:40.470 ,5,0,1.,4.8,0.,4.8,0.,4.8,0.,4.8
1980-11-14 13:44:45.270 ,5,0,0.,4.8,0.,4.8,0.,4.8,0.,4.8
1980-11-14 13:44:50.070 ,5,0,0.,4.8,0.,4.8,0.,4.8,0.,4.8
1980-11-14 13:44:54.870 ,5,0,0.,4.8,0.,4.8,0.,4.8,0.,4.8
1980-11-14 13:44:59.670 ,5,0,0.,4.8,0.,4.8,0.,4.8,0.,4.8
1980-11-14 13:45:04.470 ,5,0,1.,4.8,0.,4.8,0.,4.8,0.,4.8